TimeEST,TemperatureF,Dew PointF,Humidity,Sea Level PressureIn,VisibilityMPH,Wind Direction,Wind SpeedMPH,Gust SpeedMPH,PrecipitationIn,Events,Conditions,WindDirDegrees,DateUTC
12:53 AM,36.0,28.0,73,30.19,10.0,NNE,8.1,-,N/A,,Overcast,20,2012-12-09 05:53:00
1:53 AM,36.0,28.0,73,30.20,10.0,NNE,6.9,-,N/A,,Overcast,30,2012-12-09 06:53:00
2:53 AM,35.1,28.0,76,30.19,10.0,NNE,6.9,-,N/A,,Overcast,20,2012-12-09 07:53:00
3:05 AM,35.6,28.4,75,30.17,10.0,NNE,8.1,-,N/A,,Overcast,30,2012-12-09 08:05:00
3:53 AM,35.1,28.9,78,30.19,10.0,ENE,4.6,-,N/A,,Overcast,60,2012-12-09 08:53:00
4:53 AM,36.0,28.9,76,30.18,10.0,East,10.4,-,N/A,,Overcast,80,2012-12-09 09:53:00
5:53 AM,36.0,27.0,70,30.19,10.0,ENE,8.1,-,N/A,,Overcast,70,2012-12-09 10:53:00
6:53 AM,36.0,26.1,67,30.19,10.0,ENE,8.1,17.3,N/A,,Overcast,70,2012-12-09 11:53:00
7:20 AM,35.6,26.6,70,30.16,10.0,ENE,9.2,-,N/A,,Overcast,70,2012-12-09 12:20:00
7:48 AM,35.6,28.4,75,30.15,10.0,ENE,11.5,17.3,N/A,,Overcast,60,2012-12-09 12:48:00
7:53 AM,36.0,28.0,73,30.17,10.0,ENE,8.1,18.4,N/A,,Overcast,60,2012-12-09 12:53:00
8:53 AM,36.0,28.0,73,30.15,10.0,ENE,10.4,-,N/A,,Overcast,60,2012-12-09 13:53:00
9:53 AM,37.0,30.0,76,30.13,10.0,ENE,6.9,-,N/A,,Overcast,60,2012-12-09 14:53:00
10:53 AM,37.9,30.9,76,30.10,10.0,NE,9.2,-,N/A,,Overcast,50,2012-12-09 15:53:00
11:00 AM,37.4,30.2,75,30.07,10.0,ENE,9.2,-,N/A,,Overcast,60,2012-12-09 16:00:00
11:53 AM,39.0,33.1,79,30.05,10.0,ENE,9.2,17.3,N/A,,Overcast,60,2012-12-09 16:53:00
12:00 PM,39.2,33.8,81,30.02,10.0,ENE,9.2,-,N/A,,Overcast,70,2012-12-09 17:00:00
12:32 PM,39.2,33.8,81,30.00,10.0,ENE,8.1,17.3,N/A,,Overcast,70,2012-12-09 17:32:00
12:53 PM,39.9,34.0,79,30.00,7.0,East,9.2,17.3,0.00,Rain,Light Rain,80,2012-12-09 17:53:00
1:03 PM,39.2,35.6,87,29.98,2.0,East,6.9,19.6,0.00,Rain,Light Rain,80,2012-12-09 18:03:00
1:34 PM,39.2,35.6,87,29.96,2.0,ENE,10.4,18.4,0.02,Rain,Light Rain,60,2012-12-09 18:34:00
1:53 PM,37.9,35.1,89,29.96,2.0,ENE,11.5,-,0.04,Rain,Light Rain,60,2012-12-09 18:53:00
2:09 PM,37.4,35.6,93,29.92,9.0,NE,15.0,-,0.01,Rain,Light Rain,50,2012-12-09 19:09:00
2:53 PM,37.0,34.0,89,29.91,9.0,ENE,13.8,-,0.01,,Overcast,60,2012-12-09 19:53:00
3:53 PM,37.0,34.0,89,29.88,9.0,ENE,11.5,17.3,0.00,Rain,Light Rain,60,2012-12-09 20:53:00
4:53 PM,37.0,35.1,93,29.85,6.0,ENE,9.2,18.4,0.01,Rain,Light Rain,70,2012-12-09 21:53:00
5:53 PM,36.0,35.1,97,29.84,7.0,NNE,9.2,-,0.02,,Overcast,20,2012-12-09 22:53:00
6:08 PM,35.6,35.6,100,29.81,2.5,NNE,9.2,-,N/A,,Overcast,30,2012-12-09 23:08:00
6:28 PM,35.6,35.6,100,29.80,2.5,NE,4.6,-,N/A,,Overcast,40,2012-12-09 23:28:00
6:35 PM,35.6,35.6,100,29.79,1.2,NNE,8.1,-,N/A,,Overcast,30,2012-12-09 23:35:00
6:53 PM,36.0,34.0,93,29.81,1.2,NNE,4.6,-,N/A,,Overcast,20,2012-12-09 23:53:00
7:53 PM,36.0,34.0,93,29.77,1.2,Calm,Calm,-,N/A,,Overcast,0,2012-12-10 00:53:00
8:53 PM,36.0,34.0,93,29.74,1.2,North,3.5,-,0.00,,Overcast,350,2012-12-10 01:53:00
9:10 PM,35.6,35.6,100,29.71,0.5,NW,3.5,-,N/A,,Overcast,310,2012-12-10 02:10:00
9:53 PM,36.0,35.1,97,29.72,0.5,Calm,Calm,-,N/A,,Overcast,0,2012-12-10 02:53:00
10:11 PM,37.4,35.6,93,29.69,0.2,NW,4.6,-,N/A,,Overcast,320,2012-12-10 03:11:00
10:53 PM,37.0,35.1,93,29.68,0.1,North,4.6,-,N/A,Fog,Fog,350,2012-12-10 03:53:00
11:53 PM,37.0,35.1,93,29.66,0.1,NNW,3.5,-,0.00,Fog-Rain,Light Rain,330,2012-12-10 04:53:00